Volver al catálogo

QIANFAN-13

ActivoComunicacionesPO
NORAD 60391·PAYLOAD·🇨🇳 China

Lanzado Aug 6, 2024 desde Taiyuan Satellite Launch Center

Loading…

Próximos Pases (próximas 24 horas)

TLE

ActualizadoSource: Space-Track

Época: Sep 14, 2026, 12:40 UTC

1 60391U 24140N   26257.52785128  .00000015  00000-0  49165-5 0  9996
2 60391  88.9908 270.8664 0014709 126.2218 234.0295 13.51023667104508

Sigue QIANFAN-13 en tiempo real con AllMySat

Download on the App Store